| time (UTC) | temp F | wind direction | speed knots | gust knots | rain 1hr in | rain 24hr in | rain mn in | humidity % | barometer mb |
| 20260508155616 | 44 | 12 | 1.7 | 1.7 | 0.00 | 0.00 | 0.00 | 75 | 1008.9 |
| 20260508155113 | 44 | 19 | 2.6 | 2.6 | 0.00 | 0.00 | 0.00 | 74 | 1008.7 |
| 20260508154610 | 45 | 36 | 0.9 | 1.7 | 0.00 | 0.00 | 0.00 | 74 | 1008.8 |
| 20260508154106 | 46 | 32 | 1.7 | 2.6 | 0.00 | 0.00 | 0.00 | 67 | 1008.6 |
| 20260508153604 | 47 | 303 | 3.5 | 4.3 | 0.00 | 0.00 | 0.00 | 61 | 1008.3 |
| 20260508153100 | 49 | 29 | 1.7 | 1.7 | 0.00 | 0.00 | 0.00 | 57 | 1008.2 |
| 20260508152557 | 49 | 75 | 0.9 | 0.9 | 0.00 | 0.00 | 0.00 | 56 | 1008.4 |
| 20260508152052 | 49 | 2 | 1.7 | 1.7 | 0.00 | 0.00 | 0.00 | 57 | 1008.1 |
| 20260508151549 | 49 | 300 | 2.6 | 2.6 | 0.00 | 0.00 | 0.00 | 54 | 1008.0 |
| 20260508151046 | 50 | 33 | 0.9 | 0.9 | 0.00 | 0.00 | 0.00 | 55 | 1007.9 |
| 20260508150543 | 49 | 336 | 1.7 | 1.7 | 0.00 | 0.00 | 0.00 | 57 | 1007.7 |
| 20260508150039 | 49 | 314 | 2.6 | 2.6 | 0.00 | 0.00 | 0.00 | 56 | 1007.9 |
| 20260508145536 | 50 | 39 | 1.7 | 1.7 | 0.00 | 0.00 | 0.00 | 55 | 1007.8 |
| 20260508145032 | 50 | 324 | 1.7 | 1.7 | 0.00 | 0.00 | 0.00 | 56 | 1007.9 |
| 20260508144530 | 50 | 77 | 0.9 | 0.9 | 0.00 | 0.00 | 0.00 | 57 | 1007.8 |
| 20260508144027 | 49 | 335 | 2.6 | 2.6 | 0.00 | 0.00 | 0.00 | 60 | 1008.0 |
| 20260508143525 | 50 | 40 | 0.0 | 0.9 | 0.00 | 0.00 | 0.00 | 58 | 1007.7 |
| 20260508143021 | 49 | 309 | 1.7 | 1.7 | 0.00 | 0.00 | 0.00 | 57 | 1007.9 |
| 20260508142518 | 49 | 321 | 0.9 | 1.7 | 0.00 | 0.00 | 0.00 | 60 | 1007.7 |
| 20260508142015 | 52 | 181 | 0.9 | 0.9 | 0.00 | 0.00 | 0.00 | 57 | 1007.7 |
| 20260508141511 | 51 | 30 | 0.9 | 0.9 | 0.00 | 0.00 | 0.00 | 56 | 1007.8 |
| 20260508141009 | 50 | 1 | 0.9 | 1.7 | 0.00 | 0.00 | 0.00 | 60 | 1007.9 |
| 20260508140506 | 52 | 65 | 0.0 | 0.9 | 0.00 | 0.00 | 0.00 | 57 | 1007.8 |
| 20260508140002 | 50 | 27 | 1.7 | 1.7 | 0.00 | 0.00 | 0.00 | 57 | 1007.8 |
| 20260508135458 | 50 | 343 | 2.6 | 4.3 | 0.00 | 0.00 | 0.00 | 59 | 1007.8 |
| 20260508134954 | 49 | 24 | 0.9 | 0.9 | 0.00 | 0.00 | 0.00 | 59 | 1008.0 |
| 20260508134451 | 48 | 51 | 1.7 | 1.7 | 0.00 | 0.00 | 0.00 | 59 | 1007.8 |
| 20260508133948 | 50 | 293 | 2.6 | 2.6 | 0.00 | 0.00 | 0.00 | 59 | 1008.0 |
| 20260508133445 | 49 | 46 | 0.9 | 1.7 | 0.00 | 0.00 | 0.00 | 60 | 1007.9 |
| 20260508132942 | 48 | 338 | 2.6 | 2.6 | 0.00 | 0.00 | 0.00 | 60 | 1008.1 |
| 20260508132440 | 48 | 315 | 3.5 | 4.3 | 0.00 | 0.00 | 0.00 | 61 | 1008.0 |
| 20260508131937 | 47 | 322 | 2.6 | 2.6 | 0.00 | 0.00 | 0.00 | 60 | 1008.1 |
| 20260508131432 | 48 | 9 | 1.7 | 1.7 | 0.00 | 0.00 | 0.00 | 63 | 1008.3 |
| 20260508130929 | 47 | 317 | 1.7 | 2.6 | 0.00 | 0.00 | 0.00 | 64 | 1008.1 |
| 20260508130426 | 47 | 335 | 1.7 | 2.6 | 0.00 | 0.00 | 0.00 | 65 | 1008.3 |
| 20260508125922 | 47 | 309 | 3.5 | 4.3 | 0.00 | 0.00 | 0.00 | 62 | 1008.5 |
| 20260508125418 | 47 | 1 | 1.7 | 1.7 | 0.00 | 0.00 | 0.00 | 66 | 1008.5 |
| 20260508124916 | 46 | 354 | 1.7 | 1.7 | 0.00 | 0.00 | 0.00 | 67 | 1008.3 |
| 20260508124413 | 46 | 346 | 1.7 | 1.7 | 0.00 | 0.00 | 0.00 | 67 | 1008.4 |
| 20260508123911 | 45 | 7 | 1.7 | 1.7 | 0.00 | 0.00 | 0.00 | 72 | 1008.5 |
| 20260508123410 | 45 | 7 | 1.7 | 1.7 | 0.00 | 0.00 | 0.00 | 72 | 1008.6 |
| 20260508122905 | 45 | 48 | 0.9 | 0.9 | 0.00 | 0.00 | 0.00 | 73 | 1008.7 |
| 20260508122403 | 45 | 351 | 1.7 | 1.7 | 0.00 | 0.00 | 0.00 | 74 | 1008.5 |
| 20260508121900 | 44 | 303 | 0.9 | 1.7 | 0.00 | 0.00 | 0.00 | 77 | 1008.2 |
| 20260508121358 | 44 | 182 | 3.5 | 4.3 | 0.00 | 0.00 | 0.00 | 76 | 1008.2 |
| 20260508120855 | 43 | 86 | 0.9 | 0.9 | 0.00 | 0.00 | 0.00 | 79 | 1008.2 |
| 20260508120353 | 42 | 334 | 0.9 | 1.7 | 0.00 | 0.00 | 0.00 | 81 | 1008.2 |
| 20260508115850 | 42 | 36 | 0.9 | 0.9 | 0.00 | 0.00 | 0.00 | 84 | 1008.5 |
| 20260508115347 | 41 | 24 | 0.9 | 0.9 | 0.00 | 0.00 | 0.00 | 86 | 1008.6 |
| 20260508114844 | 40 | 19 | 0.9 | 0.9 | 0.00 | 0.00 | 0.00 | 87 | 1008.6 |
| 20260508114341 | 40 | 210 | 0.0 | 0.9 | 0.00 | 0.00 | 0.00 | 87 | 1008.3 |
| 20260508113838 | 39 | 18 | 0.9 | 0.9 | 0.00 | 0.00 | 0.00 | 87 | 1008.4 |
| 20260508113336 | 39 | 10 | 0.9 | 0.9 | 0.00 | 0.00 | 0.00 | 87 | 1008.5 |
| 20260508112832 | 39 | 339 | 1.7 | 1.7 | 0.00 | 0.00 | 0.00 | 87 | 1008.4 |
| 20260508112329 | 39 | 347 | 1.7 | 1.7 | 0.00 | 0.00 | 0.00 | 89 | 1008.2 |
| 20260508111825 | 39 | 336 | 1.7 | 1.7 | 0.00 | 0.00 | 0.00 | 89 | 1008.4 |
| 20260508111323 | 39 | 15 | 1.7 | 1.7 | 0.00 | 0.00 | 0.00 | 89 | 1008.4 |
| 20260508110820 | 39 | 355 | 0.9 | 1.7 | 0.00 | 0.00 | 0.00 | 90 | 1008.2 |
| 20260508110318 | 38 | 83 | 0.9 | 0.9 | 0.00 | 0.00 | 0.00 | 90 | 1008.2 |
| 20260508105817 | 38 | 354 | 0.9 | 0.9 | 0.00 | 0.00 | 0.00 | 90 | 1008.2 |
| 20260508105314 | 38 | 31 | 0.9 | 0.9 | 0.00 | 0.00 | 0.00 | 90 | 1008.4 |
| 20260508104811 | 38 | 54 | 0.0 | 0.9 | 0.00 | 0.00 | 0.00 | 90 | 1008.3 |
| 20260508104308 | 38 | 46 | 0.0 | 0.9 | 0.00 | 0.00 | 0.00 | 90 | 1008.4 |
| 20260508103805 | 38 | 80 | 0.0 | 0.0 | 0.00 | 0.00 | 0.00 | 90 | 1008.2 |
| 20260508103302 | 38 | 47 | 0.0 | 0.9 | 0.00 | 0.00 | 0.00 | 90 | 1007.9 |
| 20260508102800 | 38 | 359 | 0.9 | 0.9 | 0.00 | 0.00 | 0.00 | 89 | 1008.2 |
| 20260508102257 | 39 | 312 | 0.9 | 0.9 | 0.00 | 0.00 | 0.00 | 88 | 1008.1 |
| 20260508101755 | 39 | 308 | 0.9 | 1.7 | 0.00 | 0.00 | 0.00 | 87 | 1008.2 |
| 20260508101252 | 39 | 323 | 0.9 | 1.7 | 0.00 | 0.00 | 0.00 | 86 | 1008.3 |
| 20260508100749 | 39 | 336 | 2.6 | 2.6 | 0.00 | 0.00 | 0.00 | 84 | 1008.0 |
| 20260508100248 | 39 | 315 | 2.6 | 2.6 | 0.00 | 0.00 | 0.00 | 83 | 1008.0 |
| 20260508095743 | 40 | 314 | 1.7 | 1.7 | 0.00 | 0.00 | 0.00 | 81 | 1008.1 |
| 20260508095241 | 40 | 322 | 1.7 | 1.7 | 0.00 | 0.00 | 0.00 | 80 | 1008.1 |
| 20260508094738 | 40 | 311 | 3.5 | 4.3 | 0.00 | 0.00 | 0.00 | 78 | 1007.7 |
| 20260508094235 | 40 | 294 | 3.5 | 4.3 | 0.00 | 0.00 | 0.00 | 77 | 1007.6 |
| 20260508093732 | 40 | 357 | 0.9 | 1.7 | 0.00 | 0.00 | 0.00 | 75 | 1007.6 |
| 20260508093229 | 40 | 336 | 1.7 | 1.7 | 0.00 | 0.00 | 0.00 | 75 | 1007.7 |
| 20260508092726 | 39 | 337 | 0.9 | 1.7 | 0.00 | 0.00 | 0.00 | 74 | 1007.6 |
| 20260508092224 | 39 | 18 | 0.9 | 0.9 | 0.00 | 0.00 | 0.00 | 75 | 1007.5 |
| 20260508091722 | 39 | 8 | 0.9 | 1.7 | 0.00 | 0.00 | 0.00 | 74 | 1007.5 |
| 20260508091219 | 39 | 20 | 0.9 | 0.9 | 0.00 | 0.00 | 0.00 | 75 | 1007.4 |
| 20260508090717 | 39 | 22 | 0.0 | 0.9 | 0.00 | 0.00 | 0.00 | 73 | 1007.5 |
| 20260508090214 | 39 | 337 | 1.7 | 1.7 | 0.00 | 0.00 | 0.00 | 74 | 1007.1 |
| 20260508085710 | 39 | 335 | 1.7 | 1.7 | 0.00 | 0.00 | 0.00 | 74 | 1007.1 |
| 20260508085207 | 39 | 313 | 1.7 | 2.6 | 0.00 | 0.00 | 0.00 | 74 | 1007.2 |
| 20260508084703 | 38 | 26 | 0.0 | 0.0 | 0.00 | 0.00 | 0.00 | 73 | 1007.3 |
| 20260508084201 | 38 | 0 | 0.9 | 0.9 | 0.00 | 0.00 | 0.00 | 74 | 1007.2 |
| 20260508083658 | 38 | 6 | 0.9 | 0.9 | 0.00 | 0.00 | 0.00 | 73 | 1007.2 |
| 20260508083155 | 38 | 342 | 0.9 | 1.7 | 0.00 | 0.00 | 0.00 | 73 | 1007.2 |
| 20260508082650 | 38 | 354 | 1.7 | 1.7 | 0.00 | 0.00 | 0.00 | 73 | 1007.1 |
| 20260508082148 | 38 | 29 | 0.0 | 0.0 | 0.00 | 0.00 | 0.00 | 73 | 1007.1 |
| 20260508081645 | 38 | 29 | 0.0 | 0.9 | 0.00 | 0.00 | 0.00 | 72 | 1006.7 |
| 20260508081142 | 38 | 343 | 1.7 | 1.7 | 0.00 | 0.00 | 0.00 | 72 | 1007.0 |
| 20260508080639 | 38 | 35 | 0.0 | 0.9 | 0.00 | 0.00 | 0.00 | 72 | 1006.7 |
| 20260508080137 | 38 | 20 | 0.9 | 0.9 | 0.00 | 0.00 | 0.00 | 72 | 1006.9 |
| 20260508075633 | 38 | 352 | 0.9 | 1.7 | 0.00 | 0.00 | 0.00 | 71 | 1007.1 |
| 20260508075130 | 38 | 21 | 0.9 | 0.9 | 0.00 | 0.00 | 0.00 | 71 | 1006.7 |
| 20260508074628 | 38 | 19 | 0.9 | 0.9 | 0.00 | 0.00 | 0.00 | 70 | 1006.6 |
| 20260508074125 | 38 | 23 | 0.9 | 0.9 | 0.00 | 0.00 | 0.00 | 70 | 1006.6 |
| 20260508073622 | 38 | 352 | 0.9 | 0.9 | 0.00 | 0.00 | 0.00 | 70 | 1006.5 |
| 20260508073120 | 38 | 3 | 0.9 | 0.9 | 0.00 | 0.00 | 0.00 | 71 | 1006.2 |
| 20260508072615 | 38 | 316 | 1.7 | 1.7 | 0.00 | 0.00 | 0.00 | 71 | 1006.3 |
| 20260508072112 | 38 | 350 | 0.9 | 0.9 | 0.00 | 0.00 | 0.00 | 71 | 1006.6 |
| 20260508071610 | 38 | 324 | 1.7 | 1.7 | 0.00 | 0.00 | 0.00 | 71 | 1006.6 |
| 20260508071108 | 38 | 359 | 1.7 | 1.7 | 0.00 | 0.00 | 0.00 | 71 | 1006.6 |
| 20260508070605 | 38 | 24 | 0.9 | 0.9 | 0.00 | 0.00 | 0.00 | 70 | 1006.4 |
| 20260508070104 | 38 | 25 | 0.0 | 0.9 | 0.00 | 0.00 | 0.00 | 70 | 1006.2 |
| 20260508065601 | 38 | 24 | 0.9 | 0.9 | 0.00 | 0.00 | 0.00 | 70 | 1006.3 |
| 20260508065059 | 38 | 356 | 0.9 | 0.9 | 0.00 | 0.00 | 0.00 | 70 | 1006.5 |
| 20260508064556 | 39 | 358 | 0.9 | 0.9 | 0.00 | 0.00 | 0.00 | 69 | 1006.3 |
| 20260508064054 | 39 | 22 | 0.9 | 0.9 | 0.00 | 0.00 | 0.00 | 68 | 1006.3 |
| 20260508063551 | 39 | 20 | 0.9 | 0.9 | 0.00 | 0.00 | 0.00 | 68 | 1006.3 |
| 20260508063049 | 39 | 16 | 0.9 | 0.9 | 0.00 | 0.00 | 0.00 | 68 | 1006.6 |
| 20260508062546 | 39 | 17 | 0.9 | 0.9 | 0.00 | 0.00 | 0.00 | 68 | 1006.3 |
| 20260508062042 | 39 | 16 | 0.9 | 0.9 | 0.00 | 0.00 | 0.00 | 67 | 1006.4 |
| 20260508061540 | 39 | 23 | 0.9 | 0.9 | 0.00 | 0.00 | 0.00 | 68 | 1006.6 |
| 20260508061037 | 39 | 358 | 0.9 | 0.9 | 0.00 | 0.00 | 0.00 | 67 | 1006.5 |
| 20260508060534 | 39 | 320 | 1.7 | 1.7 | 0.00 | 0.00 | 0.00 | 67 | 1006.5 |
| 20260508060031 | 39 | 25 | 0.9 | 1.7 | 0.00 | 0.00 | 0.00 | 67 | 1006.6 |
| 20260508055527 | 39 | 318 | 1.7 | 1.7 | 0.00 | 0.00 | 0.00 | 68 | 1006.6 |
| 20260508055024 | 39 | 18 | 1.7 | 1.7 | 0.00 | 0.00 | 0.00 | 68 | 1006.6 |
| 20260508054520 | 39 | 23 | 0.0 | 0.9 | 0.00 | 0.00 | 0.00 | 68 | 1006.7 |
| 20260508054018 | 38 | 336 | 1.7 | 1.7 | 0.00 | 0.00 | 0.00 | 69 | 1007.2 |
| 20260508053514 | 38 | 5 | 0.9 | 0.9 | 0.00 | 0.00 | 0.00 | 69 | 1006.9 |
| 20260508053013 | 38 | 29 | 0.9 | 0.9 | 0.00 | 0.00 | 0.00 | 69 | 1006.7 |
| 20260508052510 | 38 | 11 | 0.9 | 0.9 | 0.00 | 0.00 | 0.00 | 68 | 1006.7 |
| 20260508052006 | 38 | 26 | 0.0 | 0.9 | 0.00 | 0.00 | 0.00 | 68 | 1007.0 |
| 20260508051502 | 39 | 342 | 1.7 | 1.7 | 0.00 | 0.00 | 0.00 | 67 | 1007.0 |
| 20260508050957 | 39 | 17 | 0.9 | 0.9 | 0.00 | 0.00 | 0.00 | 67 | 1007.2 |
| 20260508050454 | 39 | 21 | 0.9 | 0.9 | 0.00 | 0.00 | 0.00 | 66 | 1007.0 |
| 20260508045951 | 39 | 46 | 0.9 | 1.7 | 0.00 | 0.00 | 0.00 | 67 | 1007.0 |
| 20260508045448 | 39 | 33 | 0.0 | 0.0 | 0.00 | 0.00 | 0.00 | 67 | 1007.0 |
| 20260508044945 | 39 | 11 | 0.9 | 0.9 | 0.00 | 0.00 | 0.00 | 67 | 1006.9 |
| 20260508044442 | 38 | 2 | 0.9 | 1.7 | 0.00 | 0.00 | 0.00 | 67 | 1006.7 |
| 20260508043938 | 39 | 15 | 0.9 | 0.9 | 0.00 | 0.00 | 0.00 | 71 | 1006.7 |
| 20260508043436 | 38 | 34 | 0.9 | 1.7 | 0.00 | 0.00 | 0.00 | 68 | 1006.7 |
| 20260508042931 | 37 | 351 | 1.7 | 1.7 | 0.00 | 0.00 | 0.00 | 73 | 1006.6 |
| 20260508042430 | 35 | 43 | 0.9 | 0.9 | 0.00 | 0.00 | 0.00 | 85 | 1006.5 |
| 20260508041926 | 34 | 59 | 0.0 | 0.0 | 0.00 | 0.00 | 0.00 | 90 | 1006.5 |
| 20260508041423 | 33 | 73 | 0.0 | 0.0 | 0.00 | 0.00 | 0.00 | 91 | 1006.6 |
| 20260508040920 | 33 | 73 | 0.0 | 0.0 | 0.00 | 0.00 | 0.00 | 90 | 1006.6 |
| 20260508040417 | 33 | 73 | 0.0 | 0.0 | 0.00 | 0.00 | 0.00 | 90 | 1006.6 |
| 20260508035915 | 34 | 73 | 0.0 | 0.0 | 0.00 | 0.00 | 0.00 | 89 | 1006.6 |
| 20260508035411 | 34 | 73 | 0.0 | 0.0 | 0.00 | 0.00 | 0.00 | 89 | 1006.7 |
| 20260508034908 | 34 | 73 | 0.0 | 0.0 | 0.00 | 0.00 | 0.00 | 89 | 1006.6 |
| 20260508034406 | 34 | 73 | 0.0 | 0.0 | 0.00 | 0.00 | 0.00 | 88 | 1006.6 |
| 20260508033902 | 34 | 75 | 0.0 | 0.0 | 0.00 | 0.00 | 0.00 | 88 | 1006.5 |
| 20260508033400 | 35 | 77 | 0.0 | 0.0 | 0.00 | 0.00 | 0.00 | 88 | 1006.3 |
| 20260508032858 | 35 | 78 | 0.0 | 0.0 | 0.00 | 0.00 | 0.00 | 87 | 1006.6 |
| 20260508032355 | 35 | 78 | 0.0 | 0.0 | 0.00 | 0.00 | 0.00 | 86 | 1006.5 |
| 20260508031851 | 35 | 78 | 0.0 | 0.0 | 0.00 | 0.00 | 0.00 | 86 | 1006.7 |
| 20260508031349 | 35 | 78 | 0.0 | 0.0 | 0.00 | 0.00 | 0.00 | 85 | 1006.7 |
| 20260508030844 | 35 | 78 | 0.0 | 0.0 | 0.00 | 0.00 | 0.00 | 84 | 1006.6 |
| 20260508030342 | 36 | 78 | 0.0 | 0.0 | 0.00 | 0.00 | 0.00 | 83 | 1006.7 |
| 20260508025838 | 36 | 85 | 0.0 | 0.0 | 0.00 | 0.00 | 0.00 | 82 | 1006.9 |
| 20260508025335 | 37 | 85 | 0.0 | 0.0 | 0.00 | 0.00 | 0.00 | 81 | 1006.7 |
| 20260508024832 | 37 | 85 | 0.0 | 0.0 | 0.00 | 0.00 | 0.00 | 80 | 1006.9 |
| 20260508024328 | 38 | 85 | 0.0 | 0.0 | 0.00 | 0.00 | 0.00 | 77 | 1006.7 |
| 20260508023826 | 39 | 105 | 0.0 | 0.0 | 0.00 | 0.00 | 0.00 | 75 | 1006.6 |
| 20260508023322 | 40 | 105 | 0.0 | 0.0 | 0.00 | 0.00 | 0.00 | 72 | 1006.7 |
| 20260508022819 | 41 | 105 | 0.0 | 0.0 | 0.00 | 0.00 | 0.00 | 65 | 1007.1 |
| 20260508022315 | 41 | 106 | 0.9 | 0.9 | 0.00 | 0.00 | 0.00 | 62 | 1006.7 |
| 20260508021812 | 42 | 45 | 0.0 | 0.0 | 0.00 | 0.00 | 0.00 | 64 | 1006.6 |
| 20260508021308 | 43 | 44 | 0.0 | 0.0 | 0.00 | 0.00 | 0.00 | 62 | 1006.6 |
| 20260508020804 | 43 | 3 | 1.7 | 1.7 | 0.00 | 0.00 | 0.00 | 58 | 1006.7 |
| 20260508020302 | 43 | 2 | 1.7 | 1.7 | 0.00 | 0.00 | 0.00 | 58 | 1006.5 |
| 20260508015759 | 42 | 359 | 1.7 | 1.7 | 0.00 | 0.00 | 0.00 | 61 | 1006.6 |
| 20260508015256 | 40 | 23 | 0.9 | 0.9 | 0.00 | 0.00 | 0.00 | 68 | 1006.7 |
| 20260508014753 | 39 | 76 | 0.0 | 0.0 | 0.00 | 0.00 | 0.00 | 69 | 1006.5 |
| 20260508014250 | 39 | 63 | 0.0 | 0.0 | 0.00 | 0.00 | 0.00 | 71 | 1006.6 |
| 20260508013745 | 41 | 67 | 0.0 | 0.0 | 0.00 | 0.00 | 0.00 | 70 | 1006.5 |
| 20260508013242 | 41 | 50 | 0.0 | 0.0 | 0.00 | 0.00 | 0.00 | 70 | 1006.6 |
| 20260508012740 | 42 | 58 | 0.9 | 0.9 | 0.00 | 0.00 | 0.00 | 64 | 1006.6 |
| 20260508012236 | 42 | 82 | 0.9 | 0.9 | 0.00 | 0.00 | 0.00 | 62 | 1006.5 |
| 20260508011735 | 43 | 42 | 0.0 | 0.0 | 0.00 | 0.00 | 0.00 | 64 | 1006.2 |
| 20260508011232 | 44 | 35 | 0.9 | 0.9 | 0.00 | 0.00 | 0.00 | 62 | 1006.5 |
| 20260508010728 | 44 | 9 | 0.9 | 0.9 | 0.00 | 0.00 | 0.00 | 57 | 1006.4 |
| 20260508010227 | 44 | 21 | 0.9 | 0.9 | 0.00 | 0.00 | 0.00 | 55 | 1006.3 |
| 20260508005723 | 44 | 1 | 1.7 | 1.7 | 0.00 | 0.00 | 0.00 | 56 | 1006.4 |
| 20260508005220 | 44 | 17 | 0.9 | 0.9 | 0.00 | 0.00 | 0.00 | 58 | 1006.1 |
| 20260508004715 | 44 | 10 | 0.9 | 0.9 | 0.00 | 0.00 | 0.00 | 56 | 1006.2 |
| 20260508004212 | 44 | 45 | 0.0 | 0.0 | 0.00 | 0.00 | 0.00 | 60 | 1005.8 |
| 20260508003709 | 45 | 31 | 0.9 | 0.9 | 0.00 | 0.00 | 0.00 | 60 | 1005.8 |
| 20260508003206 | 45 | 16 | 0.9 | 1.7 | 0.00 | 0.00 | 0.00 | 55 | 1005.9 |
| 20260508002703 | 45 | 34 | 0.9 | 0.9 | 0.00 | 0.00 | 0.00 | 54 | 1005.9 |
| 20260508002201 | 46 | 33 | 0.0 | 0.9 | 0.00 | 0.00 | 0.00 | 53 | 1005.6 |
| 20260508001655 | 46 | 20 | 0.9 | 0.9 | 0.00 | 0.00 | 0.00 | 52 | 1005.6 |
| 20260508001152 | 46 | 33 | 0.9 | 0.9 | 0.00 | 0.00 | 0.00 | 55 | 1005.8 |
| 20260508000648 | 47 | 8 | 0.0 | 0.9 | 0.00 | 0.00 | 0.00 | 52 | 1005.6 |
| 20260508000145 | 48 | 311 | 2.6 | 2.6 | 0.00 | 0.00 | 0.00 | 49 | 1005.5 |
| 20260507235642 | 48 | 316 | 0.9 | 1.7 | 0.00 | 0.00 | 0.00 | 50 | 1005.6 |
| 20260507235139 | 48 | 11 | 0.9 | 0.9 | 0.00 | 0.00 | 0.00 | 50 | 1005.5 |
| 20260507234636 | 49 | 14 | 0.9 | 1.7 | 0.00 | 0.00 | 0.00 | 49 | 1005.6 |
| 20260507234132 | 49 | 50 | 0.9 | 0.9 | 0.00 | 0.00 | 0.00 | 50 | 1005.5 |
| 20260507233629 | 49 | 314 | 1.7 | 1.7 | 0.00 | 0.00 | 0.00 | 47 | 1005.4 |
| 20260507233128 | 50 | 357 | 1.7 | 1.7 | 0.00 | 0.00 | 0.00 | 48 | 1005.5 |
| 20260507232625 | 50 | 334 | 1.7 | 1.7 | 0.00 | 0.00 | 0.00 | 46 | 1005.4 |
| 20260507232121 | 50 | 331 | 2.6 | 2.6 | 0.00 | 0.00 | 0.00 | 47 | 1005.4 |
| 20260507231617 | 50 | 335 | 1.7 | 1.7 | 0.00 | 0.00 | 0.00 | 47 | 1005.2 |
| 20260507231115 | 50 | 320 | 2.6 | 2.6 | 0.00 | 0.00 | 0.00 | 46 | 1005.2 |
| 20260507230611 | 50 | 2 | 2.6 | 2.6 | 0.00 | 0.00 | 0.00 | 46 | 1005.3 |
| 20260507230108 | 51 | 352 | 2.6 | 2.6 | 0.00 | 0.00 | 0.00 | 46 | 1005.4 |
| 20260507225603 | 51 | 311 | 2.6 | 4.3 | 0.00 | 0.00 | 0.00 | 46 | 1005.2 |
| 20260507225100 | 51 | 348 | 1.7 | 1.7 | 0.00 | 0.00 | 0.00 | 46 | 1005.1 |
| 20260507224555 | 51 | 20 | 1.7 | 1.7 | 0.00 | 0.00 | 0.00 | 50 | 1005.2 |
| 20260507224052 | 51 | 334 | 1.7 | 1.7 | 0.00 | 0.00 | 0.00 | 47 | 1005.1 |
| 20260507223548 | 51 | 294 | 2.6 | 4.3 | 0.00 | 0.00 | 0.00 | 44 | 1005.3 |
| 20260507223045 | 52 | 318 | 2.6 | 2.6 | 0.00 | 0.00 | 0.00 | 43 | 1005.1 |
| 20260507222542 | 52 | 33 | 1.7 | 1.7 | 0.00 | 0.00 | 0.00 | 44 | 1005.1 |
| 20260507222039 | 52 | 6 | 1.7 | 1.7 | 0.00 | 0.00 | 0.00 | 42 | 1005.1 |
| 20260507221535 | 52 | 326 | 2.6 | 4.3 | 0.00 | 0.00 | 0.00 | 41 | 1005.0 |
| 20260507221032 | 52 | 326 | 3.5 | 4.3 | 0.00 | 0.00 | 0.00 | 42 | 1005.2 |
| 20260507220529 | 52 | 328 | 3.5 | 4.3 | 0.00 | 0.00 | 0.00 | 41 | 1005.3 |
| 20260507220027 | 52 | 273 | 2.6 | 4.3 | 0.00 | 0.00 | 0.00 | 42 | 1005.2 |
| 20260507215523 | 53 | 6 | 5.2 | 7.0 | 0.00 | 0.00 | 0.00 | 39 | 1005.2 |
| 20260507215021 | 53 | 318 | 3.5 | 5.2 | 0.00 | 0.00 | 0.00 | 41 | 1005.2 |
| 20260507214518 | 53 | 279 | 3.5 | 4.3 | 0.00 | 0.00 | 0.00 | 41 | 1005.3 |
| 20260507214014 | 52 | 323 | 4.3 | 5.2 | 0.00 | 0.00 | 0.00 | 41 | 1005.2 |
| 20260507213510 | 52 | 337 | 5.2 | 7.8 | 0.00 | 0.00 | 0.00 | 39 | 1005.3 |
| 20260507213007 | 52 | 279 | 3.5 | 6.1 | 0.00 | 0.00 | 0.00 | 40 | 1005.4 |
| 20260507212502 | 52 | 279 | 2.6 | 4.3 | 0.00 | 0.00 | 0.00 | 40 | 1005.3 |
| 20260507211959 | 52 | 298 | 6.1 | 7.0 | 0.00 | 0.00 | 0.00 | 42 | 1005.4 |
| 20260507211456 | 53 | 301 | 7.8 | 9.6 | 0.00 | 0.00 | 0.00 | 42 | 1005.3 |
| 20260507210953 | 53 | 299 | 2.6 | 4.3 | 0.00 | 0.00 | 0.00 | 42 | 1005.5 |
| 20260507210450 | 52 | 329 | 3.5 | 4.3 | 0.00 | 0.00 | 0.00 | 43 | 1005.4 |
| 20260507205947 | 53 | 312 | 5.2 | 7.0 | 0.00 | 0.00 | 0.00 | 44 | 1005.2 |
| 20260507205444 | 52 | 5 | 2.6 | 2.6 | 0.00 | 0.00 | 0.00 | 44 | 1005.5 |
| 20260507204940 | 53 | 336 | 4.3 | 6.1 | 0.00 | 0.00 | 0.00 | 42 | 1005.5 |
| 20260507204436 | 53 | 269 | 4.3 | 5.2 | 0.00 | 0.00 | 0.00 | 43 | 1005.4 |
| 20260507203934 | 54 | 305 | 2.6 | 2.6 | 0.00 | 0.00 | 0.00 | 41 | 1005.1 |
| 20260507203432 | 53 | 268 | 4.3 | 4.3 | 0.00 | 0.00 | 0.00 | 43 | 1005.4 |
| 20260507202928 | 53 | 311 | 6.1 | 8.7 | 0.00 | 0.00 | 0.00 | 43 | 1005.3 |
| 20260507202424 | 54 | 353 | 2.6 | 4.3 | 0.00 | 0.00 | 0.00 | 44 | 1005.4 |
| 20260507201920 | 54 | 9 | 2.6 | 2.6 | 0.00 | 0.00 | 0.00 | 44 | 1005.2 |
| 20260507201415 | 54 | 280 | 2.6 | 4.3 | 0.00 | 0.00 | 0.00 | 42 | 1005.4 |
| 20260507200913 | 54 | 337 | 2.6 | 5.2 | 0.00 | 0.00 | 0.00 | 44 | 1005.6 |
| 20260507200408 | 54 | 50 | 3.5 | 5.2 | 0.00 | 0.00 | 0.00 | 45 | 1005.6 |
| 20260507195904 | 53 | 325 | 2.6 | 4.3 | 0.00 | 0.00 | 0.00 | 45 | 1005.7 |
| 20260507195402 | 51 | 297 | 3.5 | 4.3 | 0.00 | 0.00 | 0.00 | 47 | 1005.5 |
| 20260507194859 | 52 | 281 | 3.5 | 4.3 | 0.00 | 0.00 | 0.00 | 47 | 1005.3 |
| 20260507194355 | 54 | 328 | 4.3 | 5.2 | 0.00 | 0.00 | 0.00 | 46 | 1005.7 |
| 20260507193851 | 55 | 298 | 2.6 | 4.3 | 0.00 | 0.00 | 0.00 | 47 | 1005.5 |
| 20260507193349 | 55 | 283 | 2.6 | 4.3 | 0.00 | 0.00 | 0.00 | 44 | 1005.6 |
| 20260507192845 | 55 | 18 | 2.6 | 4.3 | 0.00 | 0.00 | 0.00 | 47 | 1005.8 |
| 20260507192341 | 54 | 98 | 2.6 | 4.3 | 0.00 | 0.00 | 0.00 | 45 | 1005.7 |
| 20260507191838 | 52 | 309 | 5.2 | 6.1 | 0.00 | 0.00 | 0.00 | 47 | 1005.6 |
| 20260507191334 | 54 | 326 | 6.1 | 6.1 | 0.00 | 0.00 | 0.00 | 47 | 1005.8 |
| 20260507190831 | 53 | 300 | 3.5 | 5.2 | 0.00 | 0.00 | 0.00 | 48 | 1006.0 |
| 20260507190330 | 54 | 7 | 5.2 | 7.0 | 0.00 | 0.00 | 0.00 | 47 | 1005.9 |
| 20260507185828 | 57 | 316 | 2.6 | 4.3 | 0.00 | 0.00 | 0.00 | 44 | 1006.0 |
| 20260507185325 | 56 | 314 | 2.6 | 4.3 | 0.00 | 0.00 | 0.00 | 44 | 1006.0 |
| 20260507184822 | 55 | 338 | 2.6 | 2.6 | 0.00 | 0.00 | 0.00 | 48 | 1005.9 |
| 20260507184320 | 52 | 348 | 2.6 | 4.3 | 0.00 | 0.00 | 0.00 | 49 | 1006.2 |
| 20260507183816 | 52 | 328 | 4.3 | 6.1 | 0.00 | 0.00 | 0.00 | 49 | 1006.1 |
| 20260507183314 | 51 | 353 | 3.5 | 4.3 | 0.00 | 0.00 | 0.00 | 53 | 1006.2 |
| 20260507182811 | 51 | 303 | 3.5 | 4.3 | 0.00 | 0.00 | 0.00 | 52 | 1006.4 |
| 20260507182307 | 50 | 313 | 3.5 | 5.2 | 0.00 | 0.00 | 0.00 | 52 | 1006.5 |
| 20260507181803 | 52 | 314 | 2.6 | 4.3 | 0.00 | 0.00 | 0.00 | 52 | 1006.4 |
| 20260507181259 | 52 | 10 | 3.5 | 5.2 | 0.00 | 0.00 | 0.00 | 53 | 1006.6 |
| 20260507180756 | 53 | 313 | 0.9 | 1.7 | 0.00 | 0.00 | 0.00 | 50 | 1006.4 |
| 20260507180253 | 52 | 338 | 2.6 | 2.6 | 0.00 | 0.00 | 0.00 | 54 | 1006.4 |
| 20260507175748 | 53 | 308 | 3.5 | 5.2 | 0.00 | 0.00 | 0.00 | 52 | 1006.5 |
| 20260507175245 | 53 | 331 | 3.5 | 4.3 | 0.00 | 0.00 | 0.00 | 54 | 1006.4 |
| 20260507174743 | 51 | 307 | 2.6 | 4.3 | 0.00 | 0.00 | 0.00 | 57 | 1006.5 |
| 20260507174241 | 51 | 316 | 1.7 | 2.6 | 0.00 | 0.00 | 0.00 | 54 | 1006.6 |
| 20260507173738 | 50 | 335 | 3.5 | 4.3 | 0.00 | 0.00 | 0.00 | 55 | 1006.5 |
| 20260507173235 | 50 | 12 | 2.6 | 2.6 | 0.00 | 0.00 | 0.00 | 55 | 1006.5 |
| 20260507172731 | 51 | 225 | 2.6 | 4.3 | 0.00 | 0.00 | 0.00 | 52 | 1006.6 |
| 20260507172229 | 51 | 330 | 4.3 | 5.2 | 0.00 | 0.00 | 0.00 | 53 | 1006.6 |
| 20260507171728 | 52 | 291 | 3.5 | 4.3 | 0.00 | 0.00 | 0.00 | 53 | 1006.6 |
| 20260507171226 | 52 | 316 | 2.6 | 4.3 | 0.00 | 0.00 | 0.00 | 50 | 1006.4 |
| 20260507170723 | 52 | 320 | 2.6 | 2.6 | 0.00 | 0.00 | 0.00 | 54 | 1006.5 |
| 20260507170220 | 52 | 309 | 1.7 | 2.6 | 0.00 | 0.00 | 0.00 | 56 | 1006.9 |
| 20260507165715 | 50 | 337 | 3.5 | 5.2 | 0.00 | 0.00 | 0.00 | 56 | 1006.6 |
| 20260507165212 | 50 | 5 | 3.5 | 4.3 | 0.00 | 0.00 | 0.00 | 56 | 1006.5 |
| 20260507164708 | 52 | 34 | 0.9 | 1.7 | 0.00 | 0.00 | 0.00 | 57 | 1007.0 |
| 20260507164205 | 51 | 350 | 3.5 | 4.3 | 0.00 | 0.00 | 0.00 | 54 | 1007.0 |
| 20260507163702 | 53 | 265 | 3.5 | 5.2 | 0.00 | 0.00 | 0.00 | 52 | 1007.1 |
| 20260507163200 | 54 | 327 | 3.5 | 4.3 | 0.00 | 0.00 | 0.00 | 53 | 1006.9 |
| 20260507162655 | 53 | 16 | 1.7 | 2.6 | 0.00 | 0.00 | 0.00 | 54 | 1007.1 |
| 20260507162152 | 52 | 320 | 3.5 | 4.3 | 0.00 | 0.00 | 0.00 | 52 | 1007.1 |
| 20260507161648 | 50 | 15 | 4.3 | 5.2 | 0.00 | 0.00 | 0.00 | 54 | 1007.2 |
| 20260507161145 | 51 | 34 | 3.5 | 4.3 | 0.00 | 0.00 | 0.00 | 54 | 1007.3 |
| 20260507160641 | 50 | 328 | 3.5 | 5.2 | 0.00 | 0.00 | 0.00 | 54 | 1007.4 |
| 20260507160138 | 51 | 357 | 3.5 | 4.3 | 0.00 | 0.00 | 0.00 | 56 | 1007.5 |